Location: Emblem
(62.4273°N, 6.4710°E)
Time: 05:25:05
(UTC+01:00)

A-11 Canister half - Pass Details

Date: 30 November 2023
Orbit: 1512 x 1687 km, 47.2° (Epoch: 24 February)

Event Time Altitude Azimuth Distance (km) Brightness Sun altitude
Exits shadow 04:59:24 29° 207° (SSW) 2,700 9.9 -28.6°
Maximum altitude 05:02:17 34° 179° (S) 2,515 10.0 -28.3°
Drops below altitude 10° 05:10:54 10° 120° (ESE) 3,949 11.8 -27.3°
Sets 05:14:28 0° 112° (ESE) 4,943 12.6 -26.9°
